Main page
METAR-TAF:

METAR-TAF

Airports :

Blue Canyon–Nyack Airport

Emigrant Gap, California, United States

latitude: 39-16-34N, longitude: 120-42-29W, elevation: 5281 ft

Current weather observation

The report was made 1 hour and 21 minutes ago, at 04:52 UTC
Calm wind
Temperature 64°F
Humidity 34%
Pressure 30.24 in. Hg
Visibility: 10 miles
Clear sky

METAR: KBLU 130452Z AUTO 00000KT 10SM CLR 18/02 A3024 RMK AO2 SLP152 T01780022

Time: 23:13 (06:13 UTC)


TAF: missing

Weather observations and forecasts of more than 4000 airports (METAR and TAF reports).

The available stations are represented by yellow and red dots on the map.

Hover mouse over dot to see the name of the station.

Then click to see weather observations and forecasts.

To change the map : click on the green buttons with a black cross to zoom in, on the green button with a dash to zoom out, or on the green arrows for adjacent maps.


METAR-TAF: